Regional Weather Roundup
Issued by NWS Little Rock, AR

Home | Current Version | Previous Version | Graphics & Text | Print | Product List | Glossary On
Versions: 1 2 3 4 5 6 7 8 9 10 11 12 13 14 15 16 17 18 19 20 21 22 23 24 25 26
000
ASUS44 KLZK 272005
RWRLZK

WEATHER ROUNDUP FOR ARKANSAS
NATIONAL WEATHER SERVICE LITTLE ROCK AR
300 PM CDT WED APR 27 2016

NOTE: "FAIR" INDICATES FEW OR NO CLOUDS BELOW 12,000 FEET WITH NO
SIGNIFICANT WEATHER AND/OR OBSTRUCTIONS TO VISIBILITY.

ARZ001-003-010-029-272100-
NORTHWEST ARKANSAS

CITY           SKY/WX    TMP DP  RH WIND       PRES   REMARKS
FAYETTEVILLE   MOSUNNY   75  56  51 SW12G21   29.66R
FORT SMITH     MOSUNNY   79  57  46 W10       29.65R
HARRISON       PTSUNNY   75  55  49 VRB7      29.65S
BENTONVILLE    MOSUNNY   75  52  43 W16G24    29.67R
ROGERS         MOSUNNY   75  57  53 SW16G22   29.66S
SILOAM SPGS    SUNNY     75  52  43 SW17      29.66S
HIGHFILL       SUNNY     76  55  48 SW14G23   29.65R
SPRINGDALE     MOSUNNY   75  54  46 SW16G23   29.68R
$$

ARZ004-005-016-272100-
NORTH CENTRAL ARKANSAS

CITY           SKY/WX    TMP DP  RH WIND       PRES   REMARKS
BATESVILLE     SUNNY     81  63  54 S12G20    29.67F
FLIPPIN        MOSUNNY  N/A N/A N/A SW10G17   29.62S
MTN HOME       MOSUNNY   77  56  48 S9G20     29.64R
$$

ARZ040-041-272100-
WEST CENTRAL ARKANSAS

CITY           SKY/WX    TMP DP  RH WIND       PRES   REMARKS
MENA           MOSUNNY   81  63  54 W10       29.69S
MOUNT IDA      MOSUNNY   78  58  49 VRB3      29.66S
$$

ARZ009-017-025-026-028-272100-
NORTHEAST ARKANSAS

CITY           SKY/WX    TMP DP  RH WIND       PRES   REMARKS
CORNING          N/A     77  64  65 S17       29.68F
JONESBORO      CLOUDY    78  63  59 SW20      29.69F
NEWPORT        CLOUDY    80  65  60 S17       29.69F
WALNUT RIDGE   SUNNY     77  64  65 S15       29.67F
BLYTHEVILLE    CLOUDY    75  67  76 SW8       29.70F
NW BLYTHEVILLE CLOUDY    77  68  73 S7        29.69F
$$

ARZ022-023-033-042-044-272100-
CENTRAL ARKANSAS

CITY           SKY/WX    TMP DP  RH WIND       PRES   REMARKS
LITTLE ROCK    MOSUNNY   80  62  54 S13G22    29.66F
N LITTLE ROCK    N/A     80  62  55 S10G20    29.64F
JACKSONVILLE   SUNNY     80  62  54 S17G25    29.66F
SEARCY         MOSUNNY   79  65  62 S10G18    29.68F
HOT SPRINGS    SUNNY     82  61  48 SW14G21   29.67F
RUSSELLVILLE   MOSUNNY   81  59  47 W9        29.64S
$$

ARZ036-272100-
EAST ARKANSAS

CITY           SKY/WX    TMP DP  RH WIND       PRES   REMARKS
WEST MEMPHIS   CLOUDY    74  63  68 SW9       29.71R
$$

ARZ050-053-066-070-073-272100-
SOUTHWEST ARKANSAS

CITY           SKY/WX    TMP DP  RH WIND       PRES   REMARKS
ARKADELPHIA    FAIR      84  69  60 SW12      29.67F HX  87
CAMDEN         SUNNY     82  63  51 S10       29.68F
TEXARKANA      SUNNY     82  61  48 SW12      29.67F
EL DORADO      MOSUNNY   79  64  60 S12       29.69F
DE QUEEN       PTSUNNY   80  64  58 SW12      29.66R
$$

ARZ056-057-069-272100-
SOUTHEAST ARKANSAS

CITY           SKY/WX    TMP DP  RH WIND       PRES   REMARKS
PINE BLUFF     MOSUNNY   78  63  59 S13G23    29.68F
STUTTGART      CLOUDY    79  63  57 S14       29.70F
MONTICELLO     CLOUDY    78  65  63 S9G18     29.69F

$$






USA.gov is the U.S. government's official web portal to all federal, state and local government web resources and services.